Location: Abantos
(40.6167°N, 4.1500°W)
Time: 21:05:49
(UTC+00:00)

Daily predictions for brighter satellites

Satellite Brightness Start Highest point End
(mag) Time Altitude Azimuth Time Altitude Azimuth Time Altitude Azimuth
H-2A R/B 3.0 17:14:19 10° ESE 17:18:32 25° ENE 17:22:40 10° NNE
Cosmos 1862 3.3 17:15:03 10° N 17:19:03 88° E 17:23:02 10° S
Cosmos 1766 Rocket 3.6 17:15:31 10° N 17:19:53 87° W 17:24:14 10° S
ATLAS CENTAUR R/B 3.2 17:19:44 10° WSW 17:23:11 26° NW 17:26:53 10° N
Cosmos 2221 2.5 17:20:23 10° S 17:24:35 64° E 17:28:50 10° NNE
FengYun 1-2 T 4.2 17:19:09 10° SSE 17:24:42 69° ENE 17:30:16 10° N
Cosmos 44 3.9 17:24:23 10° NNW 17:28:39 31° NE 17:32:39 10° ESE
COSMO-SKYMED 1 3.8 17:30:48 10° NE 17:34:10 22° E 17:37:32 10° SE
NOAA 12 4.3 17:30:41 10° S 17:36:00 78° WSW 17:41:22 10° NNW
Okean O Rocket 2.9 17:36:21 10° ESE 17:39:34 20° ENE 17:42:49 10° NNE
Meteor 2-19 Rocket 4.4 17:34:10 10° N 17:40:15 73° E 17:46:21 10° SSE
CZ-2C R/B 3.4 17:36:01 10° NE 17:40:31 29° E 17:44:58 10° SSE
ISS -1.4 17:41:18 10° NNW 17:42:58 13° N 17:44:38 10° NNE
CZ-4C R/B 4.2 17:41:29 10° N 17:46:06 18° NNE 17:49:48 13° ENE
MOS 1-B 4.4 17:45:43 10° SE 17:51:17 54° ENE 17:56:54 10° N
NOAA 6 4.1 17:46:44 10° SSE 17:51:54 84° WSW 17:57:04 10° NNW
Cosmos 1408 Rocket 3.8 17:54:21 10° NNW 17:58:40 71° W 18:03:01 10° S
Cosmos 1782 3.6 17:56:36 10° SSE 18:00:08 31° E 18:02:35 16° NE
GEOS 3 Rocket 4.3 17:56:54 12° ESE 18:01:05 32° NE 18:05:39 10° NNW
Cosmos 1743 Rocket 3.4 17:58:50 10° N 18:03:09 66° E 18:07:25 10° SSE
Cosmos 1763 Rocket 3.3 18:00:50 10° S 18:05:52 75° ESE 18:10:56 10° NNE
Cosmos 841 Rocket 4.2 18:03:04 10° SSE 18:07:37 32° E 18:10:09 21° NE
Cosmos 1697 Rocket 3.1 18:03:03 10° N 18:08:17 38° ENE 18:13:28 10° SE
Cosmos 1937 Rocket 4.1 18:03:57 10° N 18:08:45 33° ENE 18:13:30 10° SE
Lacrosse 5 3.6 18:04:39 10° WNW 18:09:17 35° SW 18:13:52 10° S
Cosmos 1980 Rocket 3.3 18:05:40 10° N 18:10:00 22° NE 18:10:40 21° ENE
Cosmos 1812 4.1 18:08:48 10° SE 18:10:59 21° ESE 18:10:59 21° ESE
CZ-4B DEB 4.5 18:07:08 10° S 18:12:39 74° WSW 18:18:11 10° NNW
Nadezhda 4 Rocket 4.4 18:07:50 10° NNW 18:14:06 70° W 18:20:23 10° S
Cosmos 1340 Rocket 3.0 18:10:06 10° NNW 18:14:10 77° W 18:18:13 10° S
Cosmos 1656 3.6 18:08:42 10° NNW 18:14:16 85° ENE 18:19:53 10° SSE
Cosmos 2082 Rocket 2.9 18:11:31 10° SSE 18:16:31 32° ESE 18:18:33 25° ENE
USA 276 3.5 18:17:37 10° NW 18:19:58 24° N 18:19:58 24° N
Cosmos 1151 Rocket 3.8 18:17:29 10° SSE 18:20:53 29° E 18:20:53 29° E
COSMOS 2406 3.2 18:16:13 10° S 18:21:52 63° ESE 18:26:02 19° NNE
SKYMED 2 3.4 18:18:04 10° NNE 18:22:25 75° E 18:26:45 10° S
Cosmos 1933 3.3 18:18:33 10° S 18:22:37 85° WNW 18:26:41 10° N
Cosmos 1602 3.6 18:20:15 10° N 18:24:05 68° E 18:27:54 10° SSE
Cosmos 990 Rocket 3.9 18:18:58 10° NNW 18:24:12 84° ENE 18:29:21 10° SSE
Cosmos 1092 Rocket 4.0 18:18:10 10° N 18:24:33 83° E 18:30:53 10° S
Cosmos 1809 Rocket 4.3 18:19:05 10° N 18:25:12 75° E 18:31:16 10° SSE
USA 229 DEB 3.9 18:22:02 10° NNW 18:29:21 61° NE 18:37:06 10° SE
SJ 16-02 4.0 18:26:06 10° NW 18:29:25 21° W 18:32:43 10° SSW
USA 229 3.9 18:22:08 10° NNW 18:29:27 61° NE 18:37:11 10° SE
Meteor 2-21 Rocket 4.5 18:25:57 10° N 18:31:55 52° ENE 18:37:47 10° SSE
Cosmos 1500 Rocket 4.4 18:29:11 10° NNW 18:33:30 51° W 18:37:46 10° S
CZ-2D R/B 4.4 18:30:37 10° S 18:34:18 45° W 18:38:00 10° NNW
Cosmos 2142 Rocket 4.4 18:29:30 10° S 18:35:29 58° E 18:41:31 10° NNE
Cosmos 1428 Rocket 4.4 18:30:49 10° N 18:36:59 89° E 18:43:08 10° S
Meteor 1-26 Rocket 4.3 18:31:15 10° S 18:37:08 83° E 18:43:10 10° N
Cosmos 1627 Rocket 4.5 18:36:04 10° N 18:42:17 84° W 18:48:23 10° S
Cosmos 1805 Rocket 3.8 18:40:06 10° NNW 18:44:24 69° W 18:48:42 10° S
Cosmos 1833 Rocket 3.1 18:43:50 10° SW 18:49:22 61° WNW 18:53:35 18° NNE
CZ-4B R/B 3.7 18:47:29 10° S 18:52:54 61° WSW 18:58:15 10° NNW
NOSS 3-1 (A) 4.1 18:45:08 10° NW 18:52:54 87° NE 19:01:52 10° SSE
Cosmos 2279 Rocket 3.8 18:47:21 10° S 18:53:34 76° E 18:59:47 10° N
Cosmos 1814 Rocket 4.1 18:49:42 10° S 18:54:34 53° ESE 18:54:34 53° ESE
GPS 2-04 Rocket1 3.7 18:51:06 10° WSW 18:54:44 36° S 18:54:44 36° S
Cosmos 2360 4.1 18:49:23 10° NNW 18:55:10 83° ENE 19:00:33 12° SSE
Sich 1 3.3 18:51:11 10° NNW 18:55:26 66° W 18:59:41 10° S
ARGOS 3.4 18:51:24 10° S 18:56:48 72° WSW 19:02:14 10° NNW
H-2A R/B 3.4 18:52:48 10° SSW 18:57:44 40° W 19:02:34 10° NNW
Meteor 1-14 Rocket 4.2 18:53:27 10° N 18:59:14 71° E 19:05:07 10° SSE
Cosmos 1898 Rocket 4.0 18:57:54 10° NNW 19:03:04 59° WSW 19:08:10 10° S
Landsat 5 4.4 19:03:51 26° NNW 19:05:51 47° WNW 19:09:45 10° SW
COSMOS 2455 2.8 19:01:16 10° SSW 19:07:17 87° WNW 19:09:04 49° NNE
COSMO-SKYMED 1 4.2 19:06:30 10° N 19:10:22 32° WNW 19:14:12 10° SW
SL-08 RB Rocket 4.0 19:06:54 10° S 19:11:31 67° WSW 19:16:09 10° NNW
Cosmos 540 Rocket 4.4 19:09:33 10° SW 19:14:25 45° WNW 19:16:54 26° N
ATLAS CENTAUR R/B 3.7 19:07:07 10° WSW 19:15:20 36° NW 19:16:50 30° N
Okean O Rocket 3.0 19:11:31 10° SSW 19:15:38 38° W 19:19:49 10° NNW
Meteor 2-16 Rocket 4.4 19:12:31 10° N 19:18:38 80° W 19:24:44 10° S
CZ-2C R/B 4.1 19:16:10 10° N 19:20:48 33° WNW 19:25:22 10° SW
BREEZE-M DEB (TANK) 4.4 19:03:06 10° SW 19:35:19 79° SE 19:37:06 61° ENE
CZ-4C R/B 3.2 19:28:57 10° NNW 19:35:02 53° NNE 19:35:02 53° NNE
GEOS 3 Rocket 4.4 19:38:03 44° SSW 19:38:56 48° WSW 19:43:59 10° NW
Cosmos 2369 4.3 19:38:44 10° NNW 19:44:20 55° WSW 19:44:28 55° WSW
Cosmos 1697 Rocket 4.4 19:47:16 10° NW 19:52:04 30° WSW 19:56:51 10° SSW
Cosmos 1980 Rocket 3.3 19:48:51 10° NNW 19:52:30 39° NW 19:52:30 39° NW
Cosmos 2082 Rocket 3.5 19:55:18 10° SW 20:00:28 36° WNW 20:00:28 36° WNW
